Regional Weather Roundup
Issued by NWS

Home | Current Version | Previous Version | Text Only | Print | Product List | Glossary Off
Versions: 1 2 3 4 5 6 7 8 9 10 11 12 13 14 15 16 17 18 19 20 21 22 23 24 25 26 27 28 29 30 31 32 33 34 35 36 37 38 39 40 41 42 43 44 45 46 47 48 49 50

000
ASUS45 KCYS 271710
RWRWY

WYOMING REGIONAL WEATHER ROUNDUP
NATIONAL WEATHER SERVICE CHEYENNE WY
1100 AM MDT THU AUG 27 2015

NOTE:  "FAIR" INDICATES FEW OR NO CLOUDS BELOW 12,000 FEET
WITH NO SIGNIFICANT WEATHER AND/OR OBSTRUCTIONS TO VISIBILITY.

WYZ001-271800-
YELLOWSTONE NATIONAL PARK

CITY           SKY/WX    TMP DP  RH WIND       PRES   REMARKS
LK YELLOWSTONE   N/A     54  48  80 VRB3      30.45R
W YELLOWSTONE  NOT AVBL

$$
WYZ002>013-054>058-071-098>099-271800-
NORTHERN WYOMING

CITY           SKY/WX    TMP DP  RH WIND       PRES   REMARKS
JACKSON        CLOUDY    55  54  94 CALM      30.39R
CODY           FAIR      73  48  40 S8        30.20R
GREYBULL       FAIR      70  56  61 E10       30.16S
WORLAND        CLOUDY    70  59  68 S12       30.17F
SHERIDAN       FAIR      76  55  48 S5        30.09R
BUFFALO        FAIR      76  48  37 SW14      30.17S
GILLETTE       CLOUDY    70  56  61 S8        30.11S
HULETT         CLOUDY    68  57  68 SW5       30.13S
NEWCASTLE      FAIR      68  50  52 N15G23    30.13F

$$
WYZ014>020-022>026-101>103-271800-
CENTRAL WYOMING

CITY           SKY/WX    TMP DP  RH WIND       PRES   REMARKS
BIG PINEY      FAIR      67  51  56 W7        30.36F
PINEDALE       FAIR      64  50  59 NW16      30.37S
DUBOIS         FAIR      70  45  40 NW10      30.32R
LANDER         FAIR      75  50  41 VRB7      30.23R
RIVERTON       FAIR      69  52  54 VRB6      30.25R
CASPER         CLOUDY    70  47  43 SW3       30.23R
DOUGLAS        FAIR      78  47  33 NW17G23   30.18F

$$
WYZ021-027>030-104>119-271800-
SOUTHERN WYOMING

CITY           SKY/WX    TMP DP  RH WIND       PRES   REMARKS
EVANSTON       FAIR      62  56  80 SW8       30.41S
KEMMERER       FAIR      64  50  59 W14G20    30.40S
FORT BRIDGER   SUNNY     68  54  60 W17G23    30.41S
ROCK SPRINGS   FAIR      64  53  67 W21       30.35S
DIXON          RAIN      65  56  72 W14       30.35S
RAWLINS        CLOUDY    61  54  77 NW10      30.32S
SARATOGA       CLOUDY    57  55  94 CALM      30.34S
LARAMIE        LGT RAIN  59  55  87 NW7       30.33R
CHEYENNE       PTSUNNY   73  48  41 NW21G29   30.21S
TORRINGTON     LGT RAIN  74  57  55 N13       30.07S
PINE BLUFFS    PTSUNNY   77  45  31 NW18G24   30.14S

$$



USA.gov is the U.S. government's official web portal to all federal, state and local government web resources and services.